[[{"header":{"parameterUnit":"m.s-1","parameterCategory":1,"la1":30.2991,"la2":30.254,"lo1":-89.0895,"lo2":-89.0444,"dy":0.0017,"dx":0.0017,"nx":28,"ny":28,"refTime":"2025-09-11T09:00:00:Z","depth":0,"parameterNumber":2,"parameterNumberName":"U-component_of_WINDS"},"data":[0,0,0,0,0,0,0,0,0,0,0,0,0,0,0,0,0,0,0,0,0,0,0,0,0,0,0,0,0,0,0,0,0,0,0,0,0,0,0,0,0,0,0,0,0,0,0,0,0,0,0,0,0,0,0,0,0,0,0.0425,0.0425,0,0.0411,0.0411,0.0411,0.0436,0.0437,0.0438,0.0439,0.0421,0.042,0.0419,0,0,0,0,0,0,0,0,0,0,0,0,0,0.0472,0.0471,0.0425,0.0425,0.0425,0.0411,0.0411,0.0411,0.0436,0.0437,0.0438,0.0439,0.0422,0.042,0.0419,0,0,0,0,0,0,0,0,0,0,0,0,0,0.0454,0.0471,0.0425,0.0436,0.0437,0.0411,0.0411,0.0411,0.0436,0.0437,0.0439,0.044,0.0422,0.042,0.0418,0.038,0,0,0.0412,0.0412,0,0,0,0,0,0,0,0,0.0455,0.0452,0.0435,0.0435,0.0436,0.0427,0.0421,0.04,0.0436,0.0436,0.0439,0.0441,0.0422,0.042,0.0414,0.0379,0.0379,0.0412,0.0411,0.041,0.041,0,0,0,0,0,0,0,0.0456,0.0453,0.042,0.0434,0.0435,0.0441,0.044,0.0417,0.0422,0.0436,0.0438,0.0436,0.0422,0.0416,0.0414,0.0378,0.0412,0.0411,0.0409,0.0409,0.0311,0.031,0,0,0,0,0,0,0.0457,0.0454,0.042,0.0419,0.0449,0.0439,0.0438,0.0429,0.0422,0.0423,0.0435,0.0438,0.0419,0.0416,0.0414,0.0368,0.041,0.0408,0.0407,0.0312,0.0311,0.0309,0,0,0,0,0,0,0.0457,0.0453,0.0421,0.0437,0.0433,0.0437,0.0426,0.0428,0.0421,0.0421,0.0422,0.0428,0.042,0.0416,0.0388,0.0368,0.0408,0.0406,0.0314,0.0312,0.031,0.0277,0,0,0,0,0,0,0.0459,0.0453,0.044,0.0437,0.0432,0.0396,0.0425,0.0426,0.0418,0.0421,0.0415,0.0415,0.0421,0.0391,0.0387,0.0366,0.0404,0.0316,0.0313,0.031,0.0279,0.0274,0.0268,0,0,0,0,0,0.046,0.043,0.0439,0.0434,0.0415,0.0395,0.0392,0.04,0.0417,0.0402,0.0402,0.0415,0.0371,0.0388,0.0383,0.0361,0.0317,0.0314,0.0311,0.0282,0.0275,0.0269,0,0,0,0,0,0,0.0429,0.043,0.0439,0.0408,0.0401,0.0399,0.0381,0.0393,0.0381,0.0384,0.0393,0.0392,0.0361,0.0359,0.0378,0.0324,0.0347,0.0342,0.0327,0.032,0.0314,0.0315,0.0403,0,0,0,0,0,0.0419,0.0404,0.0405,0.0376,0.0373,0.0378,0.0369,0.0376,0.0369,0.0366,0.0365,0.0357,0.0341,0.033,0.0316,0.028,0.0278,0.0262,0.0257,0.0252,0.0248,0.0228,0.0221,0.0298,0.0298,0.0298,0,0,0.0397,0.0395,0.0385,0.037,0.0366,0.0349,0.0375,0.0356,0.0343,0.0363,0.0337,0.0335,0.0327,0.0295,0.028,0.0292,0.0226,0.0248,0.0245,0.0243,0.0224,0.0216,0.021,0.0296,0.0297,0.0297,0,0,0.0348,0.0346,0.0322,0.0317,0.0311,0.0315,0.0309,0.0306,0.0306,0.028,0.0295,0.0279,0.0252,0.0246,0.0239,0.0189,0.02,0.0184,0.0154,0.0134,0.0128,0.0123,0.0104,0.0097,0.018,0.0179,0.0179,0,0.0321,0.0297,0.0308,0.0288,0.028,0.03,0.0275,0.027,0.0259,0.0253,0.0266,0.0233,0.0229,0.0195,0.0183,0.0177,0.017,0.0184,0.0129,0.0123,0.0118,0.01,0.0093,0.0177,0.0178,0.0178,0.0178,0,0.0263,0.0246,0.0228,0.0218,0.0208,0.0186,0.0193,0.0182,0.019,0.0192,0.0165,0.0161,0.0146,0.0139,0.0146,0.0106,0.0113,0.0127,0.015,0.0109,0.0092,0.0085,0.0175,0.0175,0.0176,0.0176,0,0,0.0193,0.019,0.0183,0.0179,0.0174,0.016,0.0139,0.0125,0.0115,0.0108,0.0089,0.0066,0.008,0.0072,0.0079,0.0061,0.0021,0.0078,0.0078,0.0066,-0.0025,-0.0037,-0.0045,0.0029,0.0028,0.0027,-0.0025,0,0.0143,0.0107,0.0117,0.008,0.0064,0.0082,0.0063,0.0058,0.0059,0.0045,0.0047,0.003,0.0049,0.0045,0.0029,0.0029,0.0002,0.0033,0.001,0.0009,0.001,-0.0053,-0.0066,-0.0114,-0.0031,-0.0032,-0.0033,0,0.008,0.0071,0.0033,0.0031,0.0025,0.0008,-0.0004,-0.0017,-0.0023,-0.0021,-0.0029,-0.0019,-0.0041,-0.0017,-0.0048,-0.0027,-0.0036,-0.0037,-0.0039,-0.0042,-0.0015,-0.0059,-0.0129,-0.0137,-0.0043,-0.0042,-0.0041,0,0.0031,0.001,-0.0016,-0.002,-0.0023,-0.0035,-0.0037,-0.0042,-0.0051,-0.0061,-0.0066,-0.0079,-0.0087,-0.0098,-0.0092,-0.0074,-0.0124,-0.0099,-0.0124,-0.0124,-0.0137,-0.0136,-0.021,-0.014,-0.014,-0.014,-0.014,0,-0.0026,-0.005,-0.0038,-0.0054,-0.0081,-0.0069,-0.0097,-0.0096,-0.01,-0.0117,-0.0101,-0.0117,-0.0108,-0.0123,-0.0118,-0.0145,-0.0148,-0.0148,-0.0147,-0.015,-0.0151,-0.0157,-0.0154,-0.0142,-0.0141,-0.0141,-0.0141,0,-0.0086,-0.0078,-0.0105,-0.0105,-0.0106,-0.0126,-0.0126,-0.0141,-0.0138,-0.0159,-0.0163,-0.0159,-0.0176,-0.017,-0.0189,-0.0185,-0.022,-0.0214,-0.0218,-0.0217,-0.0243,-0.0241,-0.0324,-0.0335,-0.0257,-0.0257,-0.0258,0,-0.0123,-0.0141,-0.0143,-0.0152,-0.0155,-0.017,-0.0178,-0.0167,-0.0177,-0.0185,-0.02,-0.0215,-0.0227,-0.0255,-0.0254,-0.0269,-0.0263,-0.0292,-0.0266,-0.0269,-0.0265,-0.0265,-0.0267,-0.0297,-0.0298,-0.0299,-0.03,0,-0.0191,-0.0186,-0.0199,-0.0209,-0.022,-0.0228,-0.0235,-0.0244,-0.0233,-0.0245,-0.0262,-0.0271,-0.0289,-0.0305,-0.0318,-0.0321,-0.0309,-0.0307,-0.0314,-0.0319,-0.0321,-0.0321,-0.0234,-0.0306,-0.0305,-0.0305,-0.0305,-0.0304,-0.0242,-0.0257,-0.026,-0.0275,-0.0278,-0.0285,-0.03,-0.0297,-0.0311,-0.0324,-0.0317,-0.0337,-0.0342,-0.0358,-0.0363,-0.0379,-0.0368,-0.0377,-0.038,-0.0383,-0.0387,-0.0317,-0.0381,-0.038,-0.038,-0.038,-0.038,0,-0.031,-0.0311,-0.0324,-0.0334,-0.0345,-0.0331,-0.0338,-0.0349,-0.0366,-0.0371,-0.0383,-0.0402,-0.0417,-0.0417,-0.0431,-0.0444,-0.0439,-0.0448,-0.0448,-0.0449,-0.0395,-0.0388,-0.0452,-0.0452,-0.0452,-0.0452,-0.0452,-0.0452,-0.0347,-0.0372,-0.0368,-0.0395,-0.0396,-0.0414,-0.042,-0.0426,-0.043,-0.0452,-0.0464,-0.0464,-0.0467,-0.0481,-0.0495,-0.0494,-0.0501,-0.0513,-0.0511,-0.046,-0.0453,-0.0446,-0.044,-0.0514,-0.0514,-0.0564,-0.0564,-0.0565]},{"header":{"parameterUnit":"m.s-1","parameterCategory":1,"la1":30.2991,"la2":30.254,"lo1":-89.0895,"lo2":-89.0444,"dy":0.0017,"dx":0.0017,"nx":28,"ny":28,"refTime":"2025-09-11T09:00:00:Z","depth":0,"parameterNumber":3,"parameterNumberName":"V-component_of_WINDS"},"data":[0,0,0,0,0,0,0,0,0,0,0,0,0,0,0,0,0,0,0,0,0,0,0,0,0,0,0,0,0,0,0,0,0,0,0,0,0,0,0,0,0,0,0,0,0,0,0,0,0,0,0,0,0,0,0,0,0,0,-1.146,-1.1461,0,-1.1503,-1.1504,-1.1504,-1.1564,-1.1565,-1.1566,-1.1567,-1.1608,-1.1608,-1.1608,0,0,0,0,0,0,0,0,0,0,0,0,0,-1.1427,-1.1427,-1.146,-1.1461,-1.1461,-1.1503,-1.1504,-1.1504,-1.1564,-1.1565,-1.1566,-1.1567,-1.1608,-1.1608,-1.1608,0,0,0,0,0,0,0,0,0,0,0,0,0,-1.1452,-1.1427,-1.146,-1.1496,-1.15,-1.1503,-1.1504,-1.1504,-1.1563,-1.1565,-1.1566,-1.1568,-1.1608,-1.1608,-1.1608,-1.1579,0,0,-1.1609,-1.1609,0,0,0,0,0,0,0,0,-1.1451,-1.1454,-1.149,-1.1494,-1.1498,-1.153,-1.1507,-1.1529,-1.1563,-1.1539,-1.1567,-1.1569,-1.158,-1.1583,-1.1588,-1.1581,-1.1582,-1.1609,-1.1609,-1.1609,-1.1609,0,0,0,0,0,0,0,-1.1449,-1.1452,-1.1477,-1.1491,-1.1495,-1.1509,-1.1514,-1.1511,-1.155,-1.1541,-1.1546,-1.155,-1.1583,-1.1587,-1.1589,-1.1583,-1.1609,-1.1609,-1.1609,-1.1609,-1.1553,-1.1551,0,0,0,0,0,0,-1.1442,-1.145,-1.1476,-1.1478,-1.1478,-1.1508,-1.1514,-1.1518,-1.1551,-1.1557,-1.1549,-1.1553,-1.1586,-1.1589,-1.1591,-1.1557,-1.1609,-1.1609,-1.1609,-1.1554,-1.1553,-1.1551,0,0,0,0,0,0,-1.1441,-1.1444,-1.1474,-1.1466,-1.147,-1.1507,-1.1511,-1.1518,-1.1522,-1.1556,-1.1563,-1.1546,-1.1587,-1.159,-1.1581,-1.1559,-1.1609,-1.1609,-1.1556,-1.1554,-1.1552,-1.149,0,0,0,0,0,0,-1.144,-1.1443,-1.1433,-1.1465,-1.1471,-1.1464,-1.1509,-1.1518,-1.1523,-1.1529,-1.1556,-1.1562,-1.1589,-1.1581,-1.1581,-1.1561,-1.161,-1.1558,-1.1555,-1.1552,-1.1495,-1.1486,-1.1479,0,0,0,0,0,-1.1439,-1.1414,-1.1432,-1.1435,-1.1459,-1.1463,-1.1466,-1.1498,-1.1521,-1.151,-1.1532,-1.1561,-1.1562,-1.1579,-1.1581,-1.1559,-1.156,-1.1556,-1.1553,-1.1498,-1.1488,-1.1479,0,0,0,0,0,0,-1.1377,-1.1419,-1.144,-1.1424,-1.144,-1.1473,-1.1461,-1.1487,-1.1495,-1.15,-1.1539,-1.1545,-1.153,-1.1545,-1.1563,-1.1532,-1.1565,-1.1562,-1.1523,-1.1514,-1.1506,-1.1502,-1.161,0,0,0,0,0,-1.1362,-1.1363,-1.1399,-1.1382,-1.1389,-1.1423,-1.1426,-1.145,-1.1467,-1.1474,-1.1495,-1.151,-1.1513,-1.1515,-1.152,-1.1498,-1.1504,-1.1484,-1.1476,-1.147,-1.1465,-1.1453,-1.1445,-1.1539,-1.1539,-1.1539,0,0,-1.1331,-1.1353,-1.1351,-1.137,-1.1385,-1.1384,-1.1428,-1.1426,-1.1425,-1.1473,-1.1465,-1.1482,-1.1501,-1.1484,-1.1478,-1.1495,-1.1441,-1.1465,-1.146,-1.1459,-1.1449,-1.144,-1.1432,-1.1536,-1.1537,-1.1537,0,0,-1.1272,-1.129,-1.1277,-1.1291,-1.1314,-1.1337,-1.1334,-1.1363,-1.1376,-1.137,-1.1405,-1.1405,-1.1411,-1.1422,-1.1429,-1.1375,-1.1401,-1.1376,-1.1335,-1.1323,-1.1315,-1.1309,-1.1288,-1.128,-1.1372,-1.1372,-1.1372,0,-1.1229,-1.123,-1.1267,-1.1262,-1.1269,-1.1314,-1.13,-1.1312,-1.1334,-1.1337,-1.1357,-1.1365,-1.1381,-1.1367,-1.1354,-1.1359,-1.1355,-1.1372,-1.1313,-1.1307,-1.1302,-1.1282,-1.1275,-1.1369,-1.1369,-1.1369,-1.137,0,-1.1176,-1.1176,-1.1163,-1.1184,-1.119,-1.118,-1.1215,-1.1216,-1.1239,-1.126,-1.1252,-1.1273,-1.1283,-1.1282,-1.1304,-1.1271,-1.1281,-1.1307,-1.134,-1.1289,-1.1271,-1.1264,-1.1364,-1.1365,-1.1366,-1.1367,0,0,-1.1078,-1.1121,-1.1115,-1.1125,-1.1153,-1.1153,-1.1146,-1.1156,-1.1155,-1.117,-1.1163,-1.1167,-1.1191,-1.1198,-1.1223,-1.1212,-1.1166,-1.1239,-1.124,-1.1223,-1.1129,-1.1108,-1.1099,-1.1185,-1.1184,-1.1183,-1.1127,0,-1.1024,-1.1014,-1.1047,-1.1028,-1.1028,-1.1071,-1.1064,-1.108,-1.1099,-1.1101,-1.1122,-1.1124,-1.1156,-1.1161,-1.1152,-1.1174,-1.1148,-1.1179,-1.1178,-1.1177,-1.1169,-1.109,-1.1069,-1.1015,-1.1121,-1.112,-1.1119,0,-1.0959,-1.097,-1.0951,-1.0979,-1.0981,-1.0974,-1.0986,-1.0988,-1.1006,-1.1021,-1.103,-1.1058,-1.1052,-1.1085,-1.1076,-1.1096,-1.1098,-1.1109,-1.1107,-1.1107,-1.1143,-1.1086,-1.0999,-1.099,-1.1108,-1.1109,-1.111,0,-1.0887,-1.0898,-1.0887,-1.0895,-1.0928,-1.0922,-1.0936,-1.0956,-1.096,-1.0971,-1.0974,-1.0983,-1.0987,-1.0993,-1.1023,-1.1045,-1.101,-1.1046,-1.102,-1.1019,-1.1009,-1.1009,-1.0919,-1.1014,-1.1014,-1.1014,-1.1014,0,-1.0821,-1.0808,-1.0856,-1.0849,-1.0835,-1.0873,-1.0857,-1.0875,-1.0893,-1.089,-1.0928,-1.0924,-1.0965,-1.0965,-1.0989,-1.0976,-1.0979,-1.0989,-1.0995,-1.0985,-1.0983,-1.0985,-1.0989,-1.1012,-1.1012,-1.1013,-1.1013,0,-1.0738,-1.077,-1.0762,-1.0795,-1.0802,-1.079,-1.0818,-1.0812,-1.0835,-1.083,-1.0831,-1.0866,-1.0868,-1.0899,-1.0908,-1.0924,-1.0902,-1.0916,-1.0895,-1.0899,-1.0871,-1.0872,-1.0777,-1.0766,-1.0869,-1.0868,-1.0867,0,-1.0693,-1.0684,-1.0716,-1.0717,-1.0729,-1.073,-1.0735,-1.0772,-1.0775,-1.0795,-1.0787,-1.0793,-1.0799,-1.0801,-1.0826,-1.0832,-1.0846,-1.0812,-1.0847,-1.0836,-1.0843,-1.0842,-1.0841,-1.0804,-1.0802,-1.0801,-1.0801,0,-1.061,-1.0626,-1.0631,-1.0642,-1.0647,-1.0657,-1.0669,-1.0668,-1.0709,-1.071,-1.0713,-1.0718,-1.0727,-1.0732,-1.0743,-1.0756,-1.0784,-1.079,-1.0784,-1.0772,-1.076,-1.0764,-1.0873,-1.0791,-1.0792,-1.0793,-1.0793,-1.0794,-1.0543,-1.0536,-1.0558,-1.0562,-1.0576,-1.0586,-1.0583,-1.0605,-1.0609,-1.0619,-1.0641,-1.0641,-1.0659,-1.0678,-1.0688,-1.0688,-1.0705,-1.0696,-1.0694,-1.0691,-1.0684,-1.0761,-1.069,-1.069,-1.0691,-1.0691,-1.0691,0,-1.046,-1.0476,-1.048,-1.0496,-1.0499,-1.0528,-1.0543,-1.0543,-1.0543,-1.0558,-1.0564,-1.0567,-1.0571,-1.0597,-1.0604,-1.0599,-1.0612,-1.0599,-1.0599,-1.0601,-1.067,-1.0673,-1.0588,-1.0588,-1.0589,-1.0589,-1.0589,-1.0589,-1.0417,-1.0406,-1.0425,-1.0421,-1.0437,-1.0438,-1.0444,-1.0453,-1.0466,-1.0468,-1.0472,-1.0489,-1.0508,-1.0517,-1.0522,-1.053,-1.053,-1.0512,-1.0524,-1.0587,-1.0596,-1.0606,-1.0609,-1.0513,-1.0512,-1.0455,-1.0455,-1.0454]}]]